Weather History for KJAC - October, 2012

Change the Weather History Date:

Monday, October 29, 2012

  Actual Average Record
Temperature  
Mean Temperature 48 °F -  
Max Temperature 55 °F 47 °F 66 °F (1962)
Min Temperature 42 °F 17 °F 2 °F (1971)
Degree Days  
Heating Degree Days 16    
Moisture  
Dew Point 36 °F    
Average Humidity 68    
Maximum Humidity 93    
Minimum Humidity 38    
Precipitation  
Precipitation 0.00 in - - ()
Sea Level Pressure  
Sea Level Pressure 30.16 in    
Wind  
Wind Speed 9 mph (SSW)    
Max Wind Speed 20 mph    
Max Gust Speed 24 mph    
Visibility 10 miles    
Events      
Averages and records for this station are not official NWS values.
T = Trace of Precipitation, MM = Missing Value Source: NWS Daily Summary

Daily Weather History Graph

Daily Weather History Graph

Search for Another Location

Airport or City:

Trip Planner

Search our weather history database for the weather conditions in past years. The results will help you decide how hot, cold, wet, or windy it might be!

Date:

Astronomy

Oct. 29, 2012 Rise Set
Actual Time 7:55 AM MDT 6:17 PM MDT
Civil Twilight 7:25 AM MDT 6:46 PM MDT
Nautical Twilight 6:52 AM MDT 7:20 PM MDT
Astronomical Twilight 6:18 AM MDT 7:53 PM MDT
Moon 6:09 PM MDT (10/29) 7:50 AM MDT (10/29)
Length of Visible Light 11h 21m
Length of Day
10h 21m
Full, 100% of the Moon is Illuminated
Oct 29
Full
Oct 29
Full
Nov 6
Last Quarter
Nov 13
New
Nov 20
First Quarter

Hourly Weather History & Observations

Time (MDT) Temp. Windchill Dew Point Humidity Pressure Visibility Wind Dir Wind Speed Gust Speed Precip Events Conditions
12:15 AM 42.8 °F 37.0 °F 41.0 °F 93% 30.12 in 10.0 mi SW 10.4 mph - N/A   Overcast
12:35 AM 42.8 °F 38.6 °F 39.2 °F 87% 30.12 in 10.0 mi WSW 6.9 mph - N/A   Overcast
12:55 AM 42.8 °F 38.6 °F 39.2 °F 87% 30.13 in 10.0 mi WSW 6.9 mph - N/A   Overcast
1:15 AM 42.8 °F 40.1 °F 39.2 °F 87% 30.13 in 10.0 mi SSW 4.6 mph - N/A   Overcast
1:35 AM 42.8 °F 41.1 °F 39.2 °F 87% 30.12 in 10.0 mi SW 3.5 mph - N/A   Overcast
1:55 AM 42.8 °F 38.6 °F 39.2 °F 87% 30.13 in 10.0 mi SW 6.9 mph - N/A   Overcast
2:36 AM 44.6 °F 40.7 °F 39.2 °F 81% 30.13 in 10.0 mi SSW 6.9 mph - N/A   Overcast
2:55 AM 44.6 °F 41.4 °F 39.2 °F 81% 30.13 in 10.0 mi SSW 5.8 mph - N/A   Overcast
3:15 AM 44.6 °F 40.2 °F 39.2 °F 81% 30.14 in 10.0 mi SW 8.1 mph - N/A   Overcast
3:35 AM 44.6 °F 40.7 °F 39.2 °F 81% 30.13 in 10.0 mi SW 6.9 mph - N/A   Overcast
3:55 AM 42.8 °F 37.5 °F 37.4 °F 81% 30.13 in 10.0 mi SSW 9.2 mph - N/A   Overcast
4:15 AM 44.6 °F 40.2 °F 39.2 °F 81% 30.13 in 10.0 mi SSW 8.1 mph 18.4 mph N/A   Overcast
4:55 AM 42.8 °F 39.3 °F 39.2 °F 87% 30.14 in 10.0 mi SW 5.8 mph - N/A   Overcast
5:15 AM 44.6 °F 40.7 °F 39.2 °F 81% 30.13 in 10.0 mi SSW 6.9 mph - N/A   Overcast
5:35 AM 44.6 °F 40.2 °F 37.4 °F 76% 30.14 in 10.0 mi SW 8.1 mph - N/A   Overcast
5:55 AM 44.6 °F 41.4 °F 37.4 °F 76% 30.14 in 10.0 mi SW 5.8 mph - N/A   Overcast
6:15 AM 44.6 °F 40.2 °F 37.4 °F 76% 30.14 in 10.0 mi WSW 8.1 mph - N/A   Overcast
6:35 AM 44.6 °F 40.7 °F 37.4 °F 76% 30.14 in 10.0 mi South 6.9 mph - N/A   Overcast
6:53 AM 44.6 °F 42.2 °F 37.4 °F 76% 30.14 in 10.0 mi South 4.6 mph - N/A   Mostly Cloudy
6:55 AM 44.6 °F 42.2 °F 37.4 °F 76% 30.14 in 10.0 mi South 4.6 mph - N/A   Overcast
7:53 AM 44.6 °F 39.7 °F 37.4 °F 76% 30.14 in 10.0 mi SSW 9.2 mph - N/A   Mostly Cloudy
8:53 AM 44.6 °F 41.4 °F 37.4 °F 76% 30.16 in 10.0 mi SSW 5.8 mph - N/A   Mostly Cloudy
9:47 AM 55.4 °F - 30.2 °F 38% 30.15 in 60.0 mi Variable 3.5 mph - N/A   Mostly Cloudy
9:51 AM 46.4 °F 40.4 °F 39.2 °F 76% 30.16 in 10.0 mi South 13.8 mph 17.3 mph N/A   Mostly Cloudy
10:52 AM 44.6 °F 36.9 °F 39.2 °F 81% 30.19 in 10.0 mi South 18.4 mph - N/A   Mostly Cloudy
11:51 AM 48.2 °F - 39.2 °F 71% 30.18 in 10.0 mi South 16.1 mph 24.2 mph N/A   Mostly Cloudy
1:51 PM 51.8 °F - 37.4 °F 58% 30.16 in 10.0 mi SSE 17.3 mph - N/A   Mostly Cloudy
2:51 PM 51.8 °F - 37.4 °F 58% 30.15 in 10.0 mi South 17.3 mph - N/A   Mostly Cloudy
3:51 PM 53.6 °F - 37.4 °F 54% 30.15 in 10.0 mi South 19.6 mph 24.2 mph N/A   Mostly Cloudy
5:59 PM 53.6 °F - 30.2 °F 41% 30.16 in 10.0 mi South 12.7 mph - N/A   Scattered Clouds
6:57 PM 50.0 °F - 33.8 °F 54% 30.17 in 10.0 mi SSE 15.0 mph - N/A   Scattered Clouds
7:57 PM 48.2 °F - 32.0 °F 54% 30.19 in 10.0 mi South 12.7 mph - N/A   Scattered Clouds
8:51 PM 48.2 °F - 30.2 °F 50% 30.19 in 10.0 mi South 9.2 mph - N/A   Scattered Clouds
8:55 PM 48.2 °F - 30.2 °F 50% 30.20 in 10.0 mi South 6.9 mph - N/A   Mostly Cloudy
9:15 PM 46.4 °F 41.5 °F 30.2 °F 53% 30.20 in 10.0 mi South 10.4 mph - N/A   Scattered Clouds
9:35 PM 48.2 °F - 28.4 °F 46% 30.20 in 10.0 mi South 8.1 mph - N/A   Partly Cloudy
9:55 PM 48.2 °F - 28.4 °F 46% 30.20 in 10.0 mi South 10.4 mph - N/A   Partly Cloudy
10:15 PM 48.2 °F - 28.4 °F 46% 30.20 in 10.0 mi SSW 10.4 mph - N/A   Partly Cloudy
10:35 PM 46.4 °F 41.1 °F 28.4 °F 50% 30.19 in 10.0 mi South 11.5 mph - N/A   Clear
10:55 PM 46.4 °F 40.7 °F 28.4 °F 50% 30.20 in 10.0 mi SSW 12.7 mph - N/A   Clear
11:35 PM 48.2 °F - 28.4 °F 46% 30.20 in 10.0 mi South 15.0 mph - N/A   Clear
11:55 PM 48.2 °F - 28.4 °F 46% 30.21 in 10.0 mi SSW 13.8 mph - N/A   Clear